Regional Weather Roundup
Issued by NWS

Home | Current Version | Previous Version | Graphics & Text | Print | Product List | Glossary On
Versions: 1 2 3 4 5 6 7 8 9 10 11 12 13 14 15 16 17 18 19 20 21 22 23 24 25 26 27 28 29 30 31 32 33 34 35 36 37 38 39 40 41 42 43 44 45 46 47 48 49 50
000
ASUS45 KPSR 130100
RWRAZ

PRELIMINARY ARIZONA REGIONAL HOURLY WEATHER ROUNDUP
NATIONAL WEATHER SERVICE PHOENIX AZ
600 PM MST SAT JUL 12 2014

NOTE: FAIR INDICATES FEW OR NO CLOUDS BELOW 12,000 FEET WITH NO
SIGNIFICANT WEATHER AND/OR OBSTRUCTIONS TO VISIBILITY.

AZZ001>003-036-130200-
NORTHWEST ARIZONA

CITY           SKY/WX    TMP DP  RH WIND       PRES   REMARKS
KINGMAN        MOSUNNY   97  38  13 W10G20    29.99F
$$

AZZ004>008-015-016-018-130200-
NORTH CENTRAL ARIZONA

CITY           SKY/WX    TMP DP  RH WIND       PRES   REMARKS
GRAND CANYON   PTSUNNY   87  40  19 VRB7      30.25S
WILLIAMS       PTSUNNY   77  54  44 SE10      30.32S
PRESCOTT       CLOUDY    84  50  30 S8G16     30.13R
FLAGSTAFF      PTSUNNY   79  47  32 SW8       30.27F
PAYSON         CLOUDY    79  57  47 SE3       30.17S
PAGE           SUNNY     99  39  12 SE6       30.02F
$$

AZZ009>014-017-130200-
NORTHEAST ARIZONA

CITY           SKY/WX    TMP DP  RH WIND       PRES   REMARKS
WINSLOW        NOT AVBL
SAINT JOHNS    CLOUDY    71  58  63 S9G28     30.17R
WINDOW ROCK    LGT RAIN  70  58  65 W10       30.25F
$$

AZZ023-130200-
GREATER PHOENIX AREA

CITY           SKY/WX    TMP DP  RH WIND       PRES   REMARKS
PHOENIX        CLOUDY   107  47  13 VRB3      29.78F HX 103
DEER VALLEY    CLOUDY   102  48  16 NW6       29.81F
SCOTTSDALE     CLOUDY   104  49  15 S5        29.83F HX 101
MESA-FALCON    PTSUNNY  100  55  22 E12G23    29.81
MESA-GATEWAY   MOSUNNY   88  64  45 SE17G38   29.85S
CHANDLER       CLOUDY    95  63  34 E20G30    29.81F
$$

AZZ027-028-130200-
SOUTHWEST MARICOPA COUNTY AND PINAL COUNTY

CITY           SKY/WX    TMP DP  RH WIND       PRES   REMARKS
CASA GRANDE    CLOUDY    91  63  38 E15G23    29.84F
$$

AZZ503-504-507>509-130200-
SOUTHEAST ARIZONA

CITY           SKY/WX    TMP DP  RH WIND       PRES   REMARKS
TUCSON         CLOUDY    93  56  28 N14       29.93S
RYAN FIELD       N/A     93  55  27 N14G22    29.92R
NOGALES        CLOUDY    83  59  44 NW12G22   30.04R
SIERRA VISTA   MOSUNNY   84  56  38 W16G28    30.08R
DOUGLAS        PTSUNNY   90  54  29 VRB3      30.02R THUNDER
SAFFORD        LGT RAIN  79  64  60 NE16      29.99S
$$

AZZ020-021-025-026-031-130200-
SOUTHWEST ARIZONA

CITY           SKY/WX    TMP DP  RH WIND       PRES   REMARKS
YUMA           NOT AVBL
$$

CAZ031-033-041-043-047-048-061-130200-
SOUTHERN CALIFORNIA

CITY           SKY/WX    TMP DP  RH WIND       PRES   REMARKS
DOWNTOWN L.A.  SUNNY     78  58  49 W8        29.91F
L.A. AIRPORT   PTSUNNY   72  61  68 W14       29.93F
SAN DIEGO      PTSUNNY   73  61  65 W12       29.95F
BURBANK        SUNNY     81  56  42 S7        29.91F
ONTARIO        PTSUNNY   86  58  38 W13       29.91F
RIVERSIDE      PTSUNNY   86  57  37 W10       29.91F
PALM SPRINGS   PTSUNNY  105  37   9 SE8       29.80F
EL CENTRO NAS  SUNNY    106  40  10 W8        29.73F HX 100
IMPERIAL       SUNNY    107  39  10 NE7       29.73F HX 101
BLYTHE         SUNNY    108  48  13 NE6       29.75F HX 104
$$

NVZ020-UTZ003-130200-
SOUTHERN NEVADA-UTAH

CITY           SKY/WX    TMP DP  RH WIND       PRES   REMARKS
LAS VEGAS      NOT AVBL
SALT LAKE CITY FAIR      93  46  19 NW9       30.10F
$$

NMZ009-TXZ055-130200-
NEW MEXICO-WEST TEXAS

CITY           SKY/WX    TMP DP  RH WIND       PRES   REMARKS
ALBUQUERQUE    PTSUNNY   87  52  29 S10       30.13S
EL PASO        CLOUDY    80  57  45 E3        30.08S
$$


........................KEY........................
SKY/WX - SKY CONDITION/WEATHER
TMP    - TEMPERATURE IN FAHRENHEIT
DP     - DEW POINT IN FAHRENHEIT
RH     - RELATIVE HUMIDITY IN PERCENT
WIND   - DIRECTION AND SPEED IN MILES PER HOUR (MPH)
VRB    - VARIABLE WIND DIRECTION
PRES   - MEAN SEA LEVEL PRESSURE IN INCHES OF MERCURY
         F - FALLING PRESSURE   R - RISING PRESSURE
         S - STEADY PRESSURE
VSB    - VISIBILITY IN MILES
HX     - HEAT INDEX IN FAHRENHEIT
WCI    - WIND CHILL INDEX IN FAHRENHEIT
TC     - TEMPERATURE IN CELSIUS WHICH IS ALSO KNOWN AS
         TEMPERATURE IN CENTIGRADE
AFB    - AIR FORCE BASE
         LUKE AFB IS LUKE AIR FORCE BASE
         DAVIS-MONTHAN IS DAVIS-MONTHAN AIR FORCE BASE
NAS    - NAVAL AIR STATION
         EL CENTRO NAS IS EL CENTRO NAVAL AIR STATION
N/A    - NOT AVAILABLE


USA.gov is the U.S. government's official web portal to all federal, state and local government web resources and services.